Station Historical Data
Daily Summary for July 28, 2017 Units:  English    Metric   Both
Next Day »
Daily Weekly Monthly Yearly Custom
  High: Low: Average:
Temperature: 89.7 °F 69.9 °F 78.6 °F
Dew Point: 59.0 °F 46.9 °F 52.2 °F
Humidity: 58% 28% 41%
Wind Speed: 12.0mph 0.0mph 2.5mph
Wind Gust: 13.0mph - -
Wind- - SSE
Pressure: 29.89 in 29.83 in -
Precipitation: 0.00 in    
Historical Graphs
 
 
Tabular Data for July 28, 2017
Time Temperature Dew Point Pressure Wind Wind Speed Wind Gust Humidity Rainfall Rate (Hourly) solar Conditions
00:03 73.8 °F 49.9 °F 29.89 in East 8.0 mph 12.0 mph 43% 0.00 in 0.00 W/m2
00:08 73.7 °F 49.8 °F 29.88 in ESE 4.0 mph 7.0 mph 43% 0.00 in 0.00 W/m2
00:13 73.7 °F 49.8 °F 29.88 in East 5.0 mph 9.0 mph 43% 0.00 in 0.00 W/m2
00:18 73.6 °F 49.8 °F 29.88 in ESE 6.0 mph 11.0 mph 43% 0.00 in 0.00 W/m2
00:23 73.5 °F 49.7 °F 29.88 in ESE 8.0 mph 13.0 mph 43% 0.00 in 0.00 W/m2
00:29 73.5 °F 49.7 °F 29.88 in East 1.0 mph 12.0 mph 43% 0.00 in 0.00 W/m2
00:39 73.3 °F 49.5 °F 29.88 in ESE 7.0 mph 11.0 mph 43% 0.00 in 0.00 W/m2
00:44 73.3 °F 49.5 °F 29.88 in East 6.0 mph 13.0 mph 43% 0.00 in 0.00 W/m2
00:49 73.2 °F 49.4 °F 29.88 in ESE 6.0 mph 9.0 mph 43% 0.00 in 0.00 W/m2
00:50 73.2 °F 49.4 °F 29.88 in Calm   9.0 mph 43% 0.00 in 0.00 W/m2
00:55 73.2 °F 49.4 °F 29.88 in ESE 7.0 mph 11.0 mph 43% 0.00 in 0.00 W/m2
01:00 73.1 °F 49.3 °F 29.88 in East 5.0 mph 13.0 mph 43% 0.00 in 0.00 W/m2
01:05 73.1 °F 49.3 °F 29.88 in ESE 7.0 mph 12.0 mph 43% 0.00 in 0.00 W/m2
01:06 73.1 °F 49.3 °F 29.88 in ESE 5.0 mph 7.0 mph 43% 0.00 in 0.00 W/m2
01:11 73.0 °F 49.2 °F 29.88 in East 4.0 mph 9.0 mph 43% 0.00 in 0.00 W/m2
01:16 73.0 °F 49.2 °F 29.88 in East 8.0 mph 8.0 mph 43% 0.00 in 0.00 W/m2
01:21 72.9 °F 49.1 °F 29.88 in ESE 7.0 mph 9.0 mph 43% 0.00 in 0.00 W/m2
01:31 72.8 °F 49.0 °F 29.88 in East 7.0 mph 8.0 mph 43% 0.00 in 0.00 W/m2
01:36 72.8 °F 49.0 °F 29.88 in East 5.0 mph 8.0 mph 43% 0.00 in 0.00 W/m2
01:37 72.8 °F 49.0 °F 29.88 in ESE 4.0 mph 12.0 mph 43% 0.00 in 0.00 W/m2
01:42 72.7 °F 49.5 °F 29.88 in ESE 5.0 mph 8.0 mph 44% 0.00 in 0.00 W/m2
01:48 72.7 °F 49.5 °F 29.88 in ESE 4.0 mph 11.0 mph 44% 0.00 in 0.00 W/m2
01:53 72.6 °F 49.5 °F 29.88 in ESE 5.0 mph 9.0 mph 44% 0.00 in 0.00 W/m2
01:58 72.6 °F 49.5 °F 29.88 in East 4.0 mph 9.0 mph 44% 0.00 in 0.00 W/m2
02:03 72.5 °F 49.4 °F 29.88 in East 5.0 mph 8.0 mph 44% 0.00 in 0.00 W/m2
02:08 72.4 °F 49.3 °F 29.88 in East 1.0 mph 7.0 mph 44% 0.00 in 0.00 W/m2
02:13 72.3 °F 49.2 °F 29.88 in East 2.0 mph 9.0 mph 44% 0.00 in 0.00 W/m2
02:18 72.2 °F 49.1 °F 29.87 in East 4.0 mph 8.0 mph 44% 0.00 in 0.00 W/m2
02:23 72.2 °F 49.1 °F 29.87 in East 2.0 mph 7.0 mph 44% 0.00 in 0.00 W/m2
02:28 72.1 °F 49.0 °F 29.87 in East 5.0 mph 7.0 mph 44% 0.00 in 0.00 W/m2
02:38 71.9 °F 48.8 °F 29.87 in East 6.0 mph 9.0 mph 44% 0.00 in 0.00 W/m2
02:43 71.7 °F 48.7 °F 29.87 in ESE 6.0 mph 9.0 mph 44% 0.00 in 0.00 W/m2
02:53 71.5 °F 48.5 °F 29.87 in ESE 7.0 mph 9.0 mph 44% 0.00 in 0.00 W/m2
02:55 71.4 °F 48.4 °F 29.87 in ESE 7.0 mph 13.0 mph 44% 0.00 in 0.00 W/m2
03:00 71.3 °F 48.9 °F 29.87 in ESE 6.0 mph 11.0 mph 45% 0.00 in 0.00 W/m2
03:05 71.2 °F 48.8 °F 29.87 in East 1.0 mph 11.0 mph 45% 0.00 in 0.00 W/m2
03:10 71.2 °F 48.8 °F 29.87 in East 4.0 mph 13.0 mph 45% 0.00 in 0.00 W/m2
03:15 71.1 °F 48.7 °F 29.87 in ESE 12.0 mph 12.0 mph 45% 0.00 in 0.00 W/m2
03:20 71.1 °F 48.7 °F 29.87 in ESE 7.0 mph 8.0 mph 45% 0.00 in 0.00 W/m2
03:25 71.0 °F 49.2 °F 29.87 in ESE 2.0 mph 9.0 mph 46% 0.00 in 0.00 W/m2
03:30 71.0 °F 49.2 °F 29.87 in East 5.0 mph 9.0 mph 46% 0.00 in 0.00 W/m2
03:35 70.9 °F 48.5 °F 29.87 in East 8.0 mph 8.0 mph 45% 0.00 in 0.00 W/m2
03:40 70.8 °F 49.0 °F 29.87 in Calm   8.0 mph 46% 0.00 in 0.00 W/m2
03:45 70.8 °F 48.4 °F 29.87 in East 2.0 mph 8.0 mph 45% 0.00 in 0.00 W/m2
03:50 70.7 °F 48.9 °F 29.87 in East 6.0 mph 8.0 mph 46% 0.00 in 0.00 W/m2
03:55 70.6 °F 48.8 °F 29.87 in Calm   11.0 mph 46% 0.00 in 0.00 W/m2
04:00 70.5 °F 48.8 °F 29.86 in East 5.0 mph 9.0 mph 46% 0.00 in 0.00 W/m2
04:05 70.5 °F 48.8 °F 29.86 in East 4.0 mph 9.0 mph 46% 0.00 in 0.00 W/m2
04:10 70.4 °F 48.7 °F 29.86 in East 5.0 mph 9.0 mph 46% 0.00 in 0.00 W/m2
04:15 70.4 °F 48.7 °F 29.86 in Calm   8.0 mph 46% 0.00 in 0.00 W/m2
04:20 70.4 °F 48.7 °F 29.86 in ESE 5.0 mph 11.0 mph 46% 0.00 in 0.00 W/m2
04:25 70.4 °F 48.7 °F 29.86 in ESE 1.0 mph 11.0 mph 46% 0.00 in 0.00 W/m2
04:30 70.3 °F 48.6 °F 29.86 in East 2.0 mph 11.0 mph 46% 0.00 in 0.00 W/m2
04:36 70.3 °F 48.6 °F 29.86 in East 4.0 mph 12.0 mph 46% 0.00 in 0.00 W/m2
04:41 70.3 °F 48.6 °F 29.86 in Calm   11.0 mph 46% 0.00 in 0.00 W/m2
04:46 70.3 °F 48.6 °F 29.86 in East 4.0 mph 6.0 mph 46% 0.00 in 0.00 W/m2
04:51 70.3 °F 48.6 °F 29.86 in Calm   8.0 mph 46% 0.00 in 0.00 W/m2
04:56 70.3 °F 48.6 °F 29.87 in ESE 5.0 mph 11.0 mph 46% 0.00 in 0.00 W/m2
05:01 70.2 °F 48.5 °F 29.87 in ESE 5.0 mph 7.0 mph 46% 0.00 in 0.00 W/m2
05:06 70.2 °F 48.5 °F 29.86 in ESE 2.0 mph 7.0 mph 46% 0.00 in 0.00 W/m2
05:11 70.1 °F 49.0 °F 29.86 in Calm   11.0 mph 47% 0.00 in 0.00 W/m2
05:16 70.1 °F 49.0 °F 29.86 in East 7.0 mph 9.0 mph 47% 0.00 in 0.00 W/m2
05:22 70.1 °F 49.0 °F 29.87 in East 5.0 mph 8.0 mph 47% 0.00 in 0.00 W/m2
05:27 70.0 °F 48.9 °F 29.86 in East 6.0 mph 7.0 mph 47% 0.00 in 0.00 W/m2
05:32 69.9 °F 48.8 °F 29.86 in Calm   8.0 mph 47% 0.00 in 0.00 W/m2
05:37 69.9 °F 48.8 °F 29.86 in ESE 8.0 mph 13.0 mph 47% 0.00 in 0.00 W/m2
05:42 69.9 °F 48.8 °F 29.86 in ESE 7.0 mph 9.0 mph 47% 0.00 in 0.00 W/m2
05:47 69.9 °F 48.8 °F 29.87 in East 2.0 mph 9.0 mph 47% 0.00 in 0.00 W/m2
05:52 69.9 °F 48.8 °F 29.86 in East 11.0 mph 11.0 mph 47% 0.00 in 0.00 W/m2
05:57 69.9 °F 48.8 °F 29.86 in East 6.0 mph 8.0 mph 47% 0.00 in 0.00 W/m2
06:02 69.9 °F 48.8 °F 29.87 in East 4.0 mph 8.0 mph 47% 0.00 in 5.00 W/m2
06:07 69.9 °F 49.3 °F 29.87 in ESE 4.0 mph 9.0 mph 48% 0.00 in 7.00 W/m2
06:12 69.9 °F 48.8 °F 29.87 in East 4.0 mph 9.0 mph 47% 0.00 in 11.00 W/m2
06:17 70.0 °F 48.9 °F 29.87 in East 1.0 mph 9.0 mph 47% 0.00 in 12.00 W/m2
06:18 70.0 °F 48.9 °F 29.87 in East 7.0 mph 9.0 mph 47% 0.00 in 14.00 W/m2
06:23 70.0 °F 49.4 °F 29.87 in East 7.0 mph 12.0 mph 48% 0.00 in 16.00 W/m2
06:28 70.0 °F 49.4 °F 29.87 in East 5.0 mph 11.0 mph 48% 0.00 in 19.00 W/m2
06:33 70.1 °F 49.5 °F 29.87 in East 1.0 mph 11.0 mph 48% 0.00 in 25.00 W/m2
06:38 70.1 °F 49.5 °F 29.87 in East 6.0 mph 11.0 mph 48% 0.00 in 35.00 W/m2
06:48 70.1 °F 50.1 °F 29.87 in East 4.0 mph 7.0 mph 49% 0.00 in 58.00 W/m2
06:53 70.1 °F 50.1 °F 29.87 in ESE 4.0 mph 9.0 mph 49% 0.00 in 69.00 W/m2
06:58 70.1 °F 50.1 °F 29.87 in Calm   11.0 mph 49% 0.00 in 84.00 W/m2
07:03 70.1 °F 50.6 °F 29.87 in East 12.0 mph 12.0 mph 50% 0.00 in 102.00 W/m2
07:08 70.1 °F 50.6 °F 29.87 in ESE 7.0 mph 9.0 mph 50% 0.00 in 120.00 W/m2
07:13 70.2 °F 50.7 °F 29.87 in East 2.0 mph 12.0 mph 50% 0.00 in 137.00 W/m2
07:18 70.2 °F 50.7 °F 29.87 in Calm   7.0 mph 50% 0.00 in 156.00 W/m2
07:23 70.2 °F 51.2 °F 29.87 in ESE 1.0 mph 11.0 mph 51% 0.00 in 176.00 W/m2
07:28 70.3 °F 51.3 °F 29.87 in East 7.0 mph 9.0 mph 51% 0.00 in 192.00 W/m2
07:33 70.3 °F 51.9 °F 29.87 in ESE 9.0 mph 12.0 mph 52% 0.00 in 213.00 W/m2
07:38 70.4 °F 52.0 °F 29.87 in Calm   8.0 mph 52% 0.00 in 234.00 W/m2
07:43 70.4 °F 52.0 °F 29.87 in East 5.0 mph 8.0 mph 52% 0.00 in 253.00 W/m2
07:48 70.5 °F 52.0 °F 29.87 in East 7.0 mph 12.0 mph 52% 0.00 in 271.00 W/m2
07:53 70.6 °F 52.7 °F 29.87 in Calm   7.0 mph 53% 0.00 in 287.00 W/m2
07:58 70.7 °F 52.8 °F 29.87 in ESE 7.0 mph 9.0 mph 53% 0.00 in 302.00 W/m2
08:03 70.8 °F 52.8 °F 29.87 in East 4.0 mph 9.0 mph 53% 0.00 in 322.00 W/m2
08:08 70.9 °F 53.4 °F 29.87 in ESE 9.0 mph 9.0 mph 54% 0.00 in 336.00 W/m2
08:13 71.1 °F 53.6 °F 29.87 in Calm   8.0 mph 54% 0.00 in 350.00 W/m2
08:18 71.2 °F 53.7 °F 29.86 in Calm   6.0 mph 54% 0.00 in 367.00 W/m2
08:23 71.3 °F 54.3 °F 29.86 in ESE 4.0 mph 7.0 mph 55% 0.00 in 383.00 W/m2
08:28 71.5 °F 54.5 °F 29.86 in Calm   8.0 mph 55% 0.00 in 401.00 W/m2
08:33 71.6 °F 55.1 °F 29.86 in Calm   8.0 mph 56% 0.00 in 417.00 W/m2
08:38 71.8 °F 55.3 °F 29.86 in ESE 7.0 mph 7.0 mph 56% 0.00 in 432.00 W/m2
08:43 72.0 °F 55.5 °F 29.87 in ESE 4.0 mph 7.0 mph 56% 0.00 in 443.00 W/m2
08:48 72.2 °F 56.1 °F 29.87 in ESE 5.0 mph 6.0 mph 57% 0.00 in 461.00 W/m2
08:53 72.4 °F 56.3 °F 29.87 in Calm   7.0 mph 57% 0.00 in 478.00 W/m2
08:58 72.7 °F 57.1 °F 29.87 in Calm   5.0 mph 58% 0.00 in 492.00 W/m2
09:03 72.9 °F 57.3 °F 29.87 in Calm   4.0 mph 58% 0.00 in 508.00 W/m2
09:08 73.2 °F 57.5 °F 29.86 in Calm   6.0 mph 58% 0.00 in 522.00 W/m2
09:13 73.5 °F 57.8 °F 29.87 in Calm   1.0 mph 58% 0.00 in 540.00 W/m2
09:18 73.9 °F 58.2 °F 29.87 in Calm   2.0 mph 58% 0.00 in 554.00 W/m2
09:24 74.2 °F 58.5 °F 29.87 in Calm     58% 0.00 in 570.00 W/m2
09:29 74.7 °F 59.0 °F 29.87 in Calm     58% 0.00 in 584.00 W/m2
09:34 75.0 °F 58.8 °F 29.87 in Calm     57% 0.00 in 594.00 W/m2
09:39 75.2 °F 54.2 °F 29.87 in Calm     48% 0.00 in 610.00 W/m2
09:44 75.6 °F 54.5 °F 29.87 in Calm     48% 0.00 in 624.00 W/m2
09:49 76.3 °F 53.4 °F 29.87 in Calm   4.0 mph 45% 0.00 in 638.00 W/m2
09:59 77.7 °F 55.9 °F 29.87 in Calm   1.0 mph 47% 0.00 in 663.00 W/m2
10:04 78.3 °F 54.6 °F 29.88 in Calm   2.0 mph 44% 0.00 in 675.00 W/m2
10:09 78.9 °F 54.5 °F 29.87 in ESE 1.0 mph 1.0 mph 43% 0.00 in 689.00 W/m2
10:14 79.4 °F 54.3 °F 29.88 in Calm   1.0 mph 42% 0.00 in 700.00 W/m2
10:19 79.8 °F 51.2 °F 29.88 in ESE 2.0 mph 4.0 mph 37% 0.00 in 710.00 W/m2
10:24 80.2 °F 53.0 °F 29.87 in Calm   4.0 mph 39% 0.00 in 721.00 W/m2
10:29 80.5 °F 53.3 °F 29.87 in Calm   1.0 mph 39% 0.00 in 731.00 W/m2
10:34 80.8 °F 54.2 °F 29.88 in Calm   5.0 mph 40% 0.00 in 742.00 W/m2
10:39 81.2 °F 56.0 °F 29.87 in Calm   6.0 mph 42% 0.00 in 754.00 W/m2
10:44 81.6 °F 54.3 °F 29.88 in Calm   6.0 mph 39% 0.00 in 761.00 W/m2
10:49 81.9 °F 54.5 °F 29.88 in Calm   2.0 mph 39% 0.00 in 770.00 W/m2
10:54 82.2 °F 56.2 °F 29.88 in Calm   4.0 mph 41% 0.00 in 780.00 W/m2
10:59 82.5 °F 55.1 °F 29.88 in Calm   4.0 mph 39% 0.00 in 788.00 W/m2
11:04 82.7 °F 55.2 °F 29.88 in Calm   1.0 mph 39% 0.00 in 800.00 W/m2
11:09 83.0 °F 55.5 °F 29.88 in Calm   1.0 mph 39% 0.00 in 809.00 W/m2
11:14 83.2 °F 53.5 °F 29.88 in East 1.0 mph 5.0 mph 36% 0.00 in 816.00 W/m2
11:19 83.4 °F 53.7 °F 29.88 in Calm     36% 0.00 in 826.00 W/m2
11:24 83.7 °F 53.9 °F 29.88 in Calm   3.0 mph 36% 0.00 in 835.00 W/m2
11:29 83.9 °F 54.1 °F 29.88 in Calm   4.0 mph 36% 0.00 in 842.00 W/m2
11:34 84.0 °F 51.8 °F 29.88 in West 3.0 mph 6.0 mph 33% 0.00 in 847.00 W/m2
11:39 84.3 °F 52.9 °F 29.88 in Calm   6.0 mph 34% 0.00 in 854.00 W/m2
11:44 84.6 °F 52.4 °F 29.88 in Calm   1.0 mph 33% 0.00 in 860.00 W/m2
11:49 84.8 °F 52.5 °F 29.88 in Calm   4.0 mph 33% 0.00 in 865.00 W/m2
11:54 84.9 °F 53.4 °F 29.88 in WNW 6.0 mph 6.0 mph 34% 0.00 in 872.00 W/m2
11:59 85.2 °F 53.7 °F 29.88 in Calm   4.0 mph 34% 0.00 in 874.00 W/m2
12:04 85.4 °F 51.4 °F 29.88 in WSW 5.0 mph 5.0 mph 31% 0.00 in 879.00 W/m2
12:09 85.8 °F 52.6 °F 29.88 in West 5.0 mph 5.0 mph 32% 0.00 in 884.00 W/m2
12:14 86.1 °F 52.8 °F 29.88 in WNW 6.0 mph 8.0 mph 32% 0.00 in 888.00 W/m2
12:19 86.5 °F 53.2 °F 29.88 in Calm   6.0 mph 32% 0.00 in 893.00 W/m2
12:24 86.8 °F 53.4 °F 29.88 in Calm   5.0 mph 32% 0.00 in 895.00 W/m2
12:29 86.9 °F 53.5 °F 29.88 in West 4.0 mph 7.0 mph 32% 0.00 in 896.00 W/m2
12:34 87.0 °F 53.6 °F 29.88 in West 3.0 mph 8.0 mph 32% 0.00 in 900.00 W/m2
12:39 87.2 °F 54.6 °F 29.88 in West 2.0 mph 6.0 mph 33% 0.00 in 900.00 W/m2
12:44 87.5 °F 54.0 °F 29.88 in Calm   7.0 mph 32% 0.00 in 905.00 W/m2
12:49 87.8 °F 53.4 °F 29.88 in West 3.0 mph 7.0 mph 31% 0.00 in 905.00 W/m2
12:54 88.3 °F 53.9 °F 29.88 in West 2.0 mph 8.0 mph 31% 0.00 in 909.00 W/m2
12:59 88.6 °F 54.1 °F 29.87 in Calm   5.0 mph 31% 0.00 in 907.00 W/m2
13:04 88.6 °F 55.0 °F 29.87 in SW 5.0 mph 8.0 mph 32% 0.00 in 905.00 W/m2
13:09 88.7 °F 55.1 °F 29.87 in WSW 3.0 mph 7.0 mph 32% 0.00 in 909.00 W/m2
13:14 88.9 °F 53.5 °F 29.87 in WSW 2.0 mph 5.0 mph 30% 0.00 in 909.00 W/m2
13:19 89.1 °F 54.6 °F 29.87 in Calm   4.0 mph 31% 0.00 in 909.00 W/m2
13:24 89.5 °F 54.9 °F 29.87 in SW 5.0 mph 8.0 mph 31% 0.00 in 907.00 W/m2
13:34 89.7 °F 54.2 °F 29.87 in WSW 4.0 mph 4.0 mph 30% 0.00 in 904.00 W/m2
13:39 89.6 °F 55.9 °F 29.87 in West 5.0 mph 9.0 mph 32% 0.00 in 900.00 W/m2
13:44 89.6 °F 55.0 °F 29.87 in Calm   6.0 mph 31% 0.00 in 898.00 W/m2
13:49 89.5 °F 54.0 °F 29.87 in West 6.0 mph 6.0 mph 30% 0.00 in 895.00 W/m2
13:54 89.3 °F 54.7 °F 29.87 in SW 7.0 mph 7.0 mph 31% 0.00 in 889.00 W/m2
13:59 89.3 °F 53.8 °F 29.86 in Calm   5.0 mph 30% 0.00 in 884.00 W/m2
14:04 89.4 °F 55.7 °F 29.86 in WSW 8.0 mph 9.0 mph 32% 0.00 in 881.00 W/m2
14:09 89.5 °F 54.9 °F 29.87 in Calm   4.0 mph 31% 0.00 in 875.00 W/m2
14:14 89.5 °F 54.0 °F 29.86 in Calm   1.0 mph 30% 0.00 in 870.00 W/m2
14:19 89.7 °F 53.2 °F 29.86 in Calm   6.0 mph 29% 0.00 in 865.00 W/m2
14:29 89.6 °F 55.0 °F 29.86 in West 4.0 mph 8.0 mph 31% 0.00 in 853.00 W/m2
14:34 89.7 °F 54.2 °F 29.86 in NW 5.0 mph 10.0 mph 30% 0.00 in 849.00 W/m2
14:39 89.6 °F 54.1 °F 29.86 in Calm   6.0 mph 30% 0.00 in 842.00 W/m2
14:44 89.7 °F 55.1 °F 29.86 in West 3.0 mph 4.0 mph 31% 0.00 in 831.00 W/m2
14:49 89.5 °F 54.0 °F 29.86 in Calm   6.0 mph 30% 0.00 in 828.00 W/m2
14:54 89.5 °F 54.0 °F 29.86 in Calm   4.0 mph 30% 0.00 in 819.00 W/m2
15:05 89.1 °F 54.6 °F 29.86 in Calm   9.0 mph 31% 0.00 in 803.00 W/m2
15:10 89.1 °F 53.7 °F 29.86 in West 2.0 mph 8.0 mph 30% 0.00 in 795.00 W/m2
15:15 89.2 °F 53.8 °F 29.85 in Calm   7.0 mph 30% 0.00 in 782.00 W/m2
15:20 89.3 °F 53.8 °F 29.85 in Calm   7.0 mph 30% 0.00 in 770.00 W/m2
15:25 89.6 °F 55.0 °F 29.85 in West 6.0 mph 7.0 mph 31% 0.00 in 761.00 W/m2
15:30 89.7 °F 54.2 °F 29.85 in Calm   5.0 mph 30% 0.00 in 759.00 W/m2
15:35 89.7 °F 54.2 °F 29.85 in Calm   9.0 mph 30% 0.00 in 747.00 W/m2
15:40 89.6 °F 54.1 °F 29.85 in WSW 1.0 mph 6.0 mph 30% 0.00 in 735.00 W/m2
15:45 89.4 °F 53.0 °F 29.85 in Calm   1.0 mph 29% 0.00 in 724.00 W/m2
15:50 89.3 °F 52.9 °F 29.85 in Calm   6.0 mph 29% 0.00 in 714.00 W/m2
15:55 89.1 °F 52.7 °F 29.85 in West 2.0 mph 9.0 mph 29% 0.00 in 700.00 W/m2
16:00 88.9 °F 54.4 °F 29.85 in Calm   6.0 mph 31% 0.00 in 687.00 W/m2
16:05 89.0 °F 52.7 °F 29.85 in Calm   10.0 mph 29% 0.00 in 677.00 W/m2
16:10 89.1 °F 53.7 °F 29.85 in SSW 2.0 mph 10.0 mph 30% 0.00 in 663.00 W/m2
16:15 89.3 °F 55.6 °F 29.85 in WNW 4.0 mph 4.0 mph 32% 0.00 in 654.00 W/m2
16:20 89.3 °F 53.8 °F 29.84 in Calm   8.0 mph 30% 0.00 in 638.00 W/m2
16:25 89.4 °F 53.0 °F 29.84 in Calm   12.0 mph 29% 0.00 in 626.00 W/m2
16:30 89.5 °F 53.1 °F 29.84 in Calm   7.0 mph 29% 0.00 in 612.00 W/m2
16:35 89.5 °F 52.1 °F 29.84 in West 3.0 mph 3.0 mph 28% 0.00 in 598.00 W/m2
16:40 89.3 °F 54.7 °F 29.84 in West 7.0 mph 7.0 mph 31% 0.00 in 582.00 W/m2
16:45 89.2 °F 52.8 °F 29.84 in WSW 3.0 mph 7.0 mph 29% 0.00 in 566.00 W/m2
16:50 89.2 °F 52.8 °F 29.84 in Calm   3.0 mph 29% 0.00 in 552.00 W/m2
16:55 89.0 °F 53.6 °F 29.84 in West 4.0 mph 5.0 mph 30% 0.00 in 540.00 W/m2
17:00 88.8 °F 53.4 °F 29.84 in Calm   7.0 mph 30% 0.00 in 519.00 W/m2
17:05 88.5 °F 53.1 °F 29.84 in Calm   5.0 mph 30% 0.00 in 512.00 W/m2
17:10 88.4 °F 54.0 °F 29.84 in Calm   3.0 mph 31% 0.00 in 497.00 W/m2
17:15 88.2 °F 53.8 °F 29.84 in Calm   4.0 mph 31% 0.00 in 483.00 W/m2
17:21 88.1 °F 53.7 °F 29.84 in Calm   5.0 mph 31% 0.00 in 469.00 W/m2
17:26 88.0 °F 52.7 °F 29.84 in WNW 1.0 mph 8.0 mph 30% 0.00 in 454.00 W/m2
17:31 88.0 °F 52.7 °F 29.84 in Calm     30% 0.00 in 438.00 W/m2
17:36 87.9 °F 53.5 °F 29.84 in West 1.0 mph 5.0 mph 31% 0.00 in 424.00 W/m2
17:41 87.8 °F 52.5 °F 29.83 in WSW 2.0 mph 3.0 mph 30% 0.00 in 410.00 W/m2
17:46 87.8 °F 52.5 °F 29.83 in Calm     30% 0.00 in 394.00 W/m2
17:51 87.8 °F 52.5 °F 29.83 in Calm     30% 0.00 in 380.00 W/m2
17:56 87.8 °F 53.4 °F 29.83 in Calm   1.0 mph 31% 0.00 in 364.00 W/m2
18:01 87.8 °F 54.3 °F 29.83 in Calm     32% 0.00 in 346.00 W/m2
18:06 87.6 °F 53.3 °F 29.83 in Calm   2.0 mph 31% 0.00 in 330.00 W/m2
18:11 87.5 °F 54.0 °F 29.83 in Calm   1.0 mph 32% 0.00 in 315.00 W/m2
18:16 87.4 °F 54.0 °F 29.83 in Calm     32% 0.00 in 297.00 W/m2
18:21 87.3 °F 55.5 °F 29.83 in WSW 3.0 mph 5.0 mph 34% 0.00 in 281.00 W/m2
18:26 87.1 °F 55.4 °F 29.83 in Calm     34% 0.00 in 267.00 W/m2
18:28 87.0 °F 55.3 °F 29.83 in Calm   5.0 mph 34% 0.00 in 260.00 W/m2
18:33 86.8 °F 55.9 °F 29.83 in SW 1.0 mph 1.0 mph 35% 0.00 in 246.00 W/m2
18:38 86.5 °F 55.6 °F 29.83 in WSW 1.0 mph 1.0 mph 35% 0.00 in 229.00 W/m2
18:44 86.3 °F 55.5 °F 29.83 in Calm   5.0 mph 35% 0.00 in 214.00 W/m2
18:49 86.0 °F 55.2 °F 29.83 in Calm   5.0 mph 35% 0.00 in 199.00 W/m2
18:54 85.7 °F 55.7 °F 29.83 in Calm   1.0 mph 36% 0.00 in 183.00 W/m2
18:59 85.3 °F 56.1 °F 29.83 in Calm   1.0 mph 37% 0.00 in 167.00 W/m2
19:04 84.9 °F 56.5 °F 29.83 in Calm   1.0 mph 38% 0.00 in 148.00 W/m2
19:09 84.4 °F 56.0 °F 29.83 in Calm   2.0 mph 38% 0.00 in 130.00 W/m2
19:14 84.1 °F 57.2 °F 29.83 in Calm   2.0 mph 40% 0.00 in 114.00 W/m2
19:19 83.7 °F 57.5 °F 29.83 in Calm   1.0 mph 41% 0.00 in 98.00 W/m2
19:23 83.2 °F 57.8 °F 29.83 in Calm   3.0 mph 42% 0.00 in 81.00 W/m2
19:28 82.9 °F 57.5 °F 29.83 in WSW 4.0 mph 5.0 mph 42% 0.00 in 67.00 W/m2
19:34 82.5 °F 57.1 °F 29.83 in Calm   4.0 mph 42% 0.00 in 53.00 W/m2
19:39 82.1 °F 56.8 °F 29.83 in Calm   4.0 mph 42% 0.00 in 42.00 W/m2
19:44 81.8 °F 56.5 °F 29.83 in Calm   4.0 mph 42% 0.00 in 32.00 W/m2
19:49 81.4 °F 56.8 °F 29.83 in WSW 1.0 mph 4.0 mph 43% 0.00 in 26.00 W/m2
19:54 81.1 °F 56.5 °F 29.84 in Calm   5.0 mph 43% 0.00 in 19.00 W/m2
19:59 80.8 °F 55.6 °F 29.84 in WSW 6.0 mph 6.0 mph 42% 0.00 in 16.00 W/m2
20:04 80.5 °F 55.3 °F 29.84 in WSW 1.0 mph 5.0 mph 42% 0.00 in 14.00 W/m2
20:09 80.2 °F 55.7 °F 29.84 in WSW 1.0 mph 4.0 mph 43% 0.00 in 11.00 W/m2
20:14 80.0 °F 55.5 °F 29.84 in WSW 4.0 mph 4.0 mph 43% 0.00 in 9.00 W/m2
20:19 79.6 °F 55.2 °F 29.84 in Calm   4.0 mph 43% 0.00 in 5.00 W/m2
20:24 79.4 °F 55.0 °F 29.84 in Calm   5.0 mph 43% 0.00 in 0.00 W/m2
20:29 79.2 °F 54.2 °F 29.84 in Calm   2.0 mph 42% 0.00 in 0.00 W/m2
20:34 79.1 °F 54.1 °F 29.84 in Calm   1.0 mph 42% 0.00 in 0.00 W/m2
20:39 78.9 °F 53.9 °F 29.84 in Calm   1.0 mph 42% 0.00 in 0.00 W/m2
20:44 78.7 °F 53.0 °F 29.84 in Calm     41% 0.00 in 0.00 W/m2
20:49 78.5 °F 52.9 °F 29.85 in Calm   1.0 mph 41% 0.00 in 0.00 W/m2
20:54 78.2 °F 53.2 °F 29.85 in Calm   1.0 mph 42% 0.00 in 0.00 W/m2
20:59 77.9 °F 52.3 °F 29.85 in Calm   1.0 mph 41% 0.00 in 0.00 W/m2
21:04 77.7 °F 52.2 °F 29.85 in Calm   1.0 mph 41% 0.00 in 0.00 W/m2
21:09 77.5 °F 52.0 °F 29.85 in Calm   5.0 mph 41% 0.00 in 0.00 W/m2
21:14 77.2 °F 51.7 °F 29.86 in Calm   1.0 mph 41% 0.00 in 0.00 W/m2
21:19 76.9 °F 50.8 °F 29.86 in Calm   1.0 mph 40% 0.00 in 0.00 W/m2
21:24 76.7 °F 51.2 °F 29.86 in Calm   1.0 mph 41% 0.00 in 0.00 W/m2
21:29 76.5 °F 50.4 °F 29.86 in Calm   3.0 mph 40% 0.00 in 0.00 W/m2
21:34 76.3 °F 50.2 °F 29.86 in WSW 4.0 mph 4.0 mph 40% 0.00 in 0.00 W/m2
21:39 76.1 °F 49.4 °F 29.86 in SSW 2.0 mph 5.0 mph 39% 0.00 in 0.00 W/m2
21:44 75.9 °F 49.2 °F 29.87 in SSW 3.0 mph 4.0 mph 39% 0.00 in 0.00 W/m2
21:49 75.8 °F 48.4 °F 29.87 in Calm   4.0 mph 38% 0.00 in 0.00 W/m2
21:54 75.7 °F 48.3 °F 29.87 in Calm   5.0 mph 38% 0.00 in 0.00 W/m2
21:59 75.6 °F 48.2 °F 29.87 in Calm   5.0 mph 38% 0.00 in 0.00 W/m2
22:04 75.4 °F 47.3 °F 29.86 in South 5.0 mph 5.0 mph 37% 0.00 in 0.00 W/m2
22:10 75.3 °F 48.0 °F 29.87 in South 4.0 mph 6.0 mph 38% 0.00 in 0.00 W/m2
22:14 75.2 °F 47.2 °F 29.87 in SSE 5.0 mph 7.0 mph 37% 0.00 in 0.00 W/m2
22:19 75.1 °F 47.1 °F 29.87 in Calm   7.0 mph 37% 0.00 in 0.00 W/m2
22:24 75.0 °F 47.0 °F 29.87 in Calm   5.0 mph 37% 0.00 in 0.00 W/m2
22:29 74.9 °F 46.9 °F 29.87 in Calm   6.0 mph 37% 0.00 in 0.00 W/m2
22:35 74.9 °F 47.6 °F 29.87 in SSE 1.0 mph 6.0 mph 38% 0.00 in 0.00 W/m2
22:40 74.8 °F 48.2 °F 29.87 in SSE 2.0 mph 6.0 mph 39% 0.00 in 0.00 W/m2
22:45 74.8 °F 48.9 °F 29.87 in Calm   6.0 mph 40% 0.00 in 0.00 W/m2
22:50 74.7 °F 50.1 °F 29.88 in Calm   8.0 mph 42% 0.00 in 0.00 W/m2
22:55 74.6 °F 50.7 °F 29.88 in Calm   8.0 mph 43% 0.00 in 0.00 W/m2
23:00 74.6 °F 51.3 °F 29.88 in Calm   8.0 mph 44% 0.00 in 0.00 W/m2
23:05 74.5 °F 51.2 °F 29.88 in SE 4.0 mph 7.0 mph 44% 0.00 in 0.00 W/m2
23:10 74.5 °F 51.8 °F 29.88 in SE 2.0 mph 8.0 mph 45% 0.00 in 0.00 W/m2
23:15 74.5 °F 51.8 °F 29.88 in SE 4.0 mph 7.0 mph 45% 0.00 in 0.00 W/m2
23:20 74.4 °F 51.7 °F 29.87 in SE 1.0 mph 9.0 mph 45% 0.00 in 0.00 W/m2
23:25 74.4 °F 52.3 °F 29.88 in ESE 4.0 mph 12.0 mph 46% 0.00 in 0.00 W/m2
23:30 74.3 °F 52.2 °F 29.88 in ESE 6.0 mph 9.0 mph 46% 0.00 in 0.00 W/m2
23:35 74.3 °F 52.2 °F 29.88 in ESE 7.0 mph 12.0 mph 46% 0.00 in 0.00 W/m2
23:40 74.2 °F 52.1 °F 29.88 in ESE 6.0 mph 11.0 mph 46% 0.00 in 0.00 W/m2
23:45 74.2 °F 52.1 °F 29.88 in ESE 4.0 mph 11.0 mph 46% 0.00 in 0.00 W/m2
23:46 74.2 °F 52.1 °F 29.88 in ESE 4.0 mph 4.0 mph 46% 0.00 in 0.00 W/m2
23:51 74.1 °F 52.6 °F 29.88 in ESE 2.0 mph 11.0 mph 47% 0.00 in 0.00 W/m2
23:56 74.0 °F 52.5 °F 29.88 in East 5.0 mph 5.0 mph 47% 0.00 in 0.00 W/m2
Foresthill Weather
 WU-history PHP script courtesy of   Juneau County Weather.
powered by Cumulus v1.9.3 (1059)
Ambient Weather VWS v14.00
Top Contact Website Map Copyright © 2007 - 2018 Foresthillweather.com Never base important decisions on this or any weather information obtained from the Internet